Location: 5810 Zion Rd, Cleves, OH 45002, USA
(39.1922°N, 84.7113°W)
Time: 16:59:39
(UTC-05:00)

Courier 1B Rocket - Pass Details

Date: 10 December 2019
Orbit: 920 x 1202 km, 28.2° (Epoch: 26 January)

Event Time Altitude Azimuth Distance (km) Brightness Sun altitude
Rises 10:21:42 0° 258° (WSW) 3,659 7.8 20.9°
Reaches altitude 10° 10:24:50 10° 246° (WSW) 2,673 7.3 21.2°
Maximum altitude 10:29:56 25° 193° (SSW) 1,765 7.3 21.7°
Drops below altitude 10° 10:34:55 10° 139° (SE) 2,602 9.1 22.2°
Sets 10:37:56 0° 127° (SE) 3,542 9.0 22.4°
